{"data":{"norad_id":55359,"intl_designator":"2023-013AE","name":"STARLINK-5641","alt_names":[],"object_type":"PAYLOAD","status":"ACTIVE","operator":null,"country":"US","launch_date":"2023-01-26","launch_site_code":"AFETR","launch_vehicle":null,"mission":null,"orbit_class":"UNKNOWN","rcs_meters":null,"size_class":null,"mass_kg":null,"dimensions":null,"purposes":["comms"],"wikipedia_slug":null,"has_3d_model":false,"image_url":null,"decayed_at":null,"tle_current":{"epoch":"2026-09-20T13:04:19.340256Z","epoch_age_seconds":92779,"freshness":"FRESH","line1":"1 55359U 23013AE  26263.54466829  .00000386  00000+0  23562-4 0  9997","line2":"2 55359  43.0032 286.4077 0002037 247.2708 112.7929 15.27575428201434","mean_motion":15.27575428,"eccentricity":0.0002037,"inclination_deg":43.0032,"raan_deg":286.4077,"arg_perigee_deg":247.2708,"mean_anomaly_deg":112.7929,"bstar":2.3562e-5,"rev_number":20143,"period_min":94.267030851978,"perigee_km":481.6651598901,"apogee_km":484.46041268303,"semimajor_km":6861.1997862866,"source":"CELESTRAK","updated_at":"2026-09-21T09:00:33.185107Z"}}}